Theta_e
313 312 313 313 313 314 314 315 315 316 317 318 319 319 319 319 316 309 302 307 311 320 315 304 306 305 304 301 303 306 295 294 299 302 305 313 312 317 318 314 315 318 317 312 312
311 311 311 311 311 311 312 312 313 314 315 316 317 318 318 317 307 303 313 320 318 322 304 299 299 301 297 298 299 296 292 294 302 305 306 309 305 303 302 305 311 314 317 310 310
309 309 309 309 310 310 311 311 311 311 313 314 315 317 317 314 302 301 313 321 320 319 303 301 300 299 295 296 295 295 290 295 296 299 302 301 300 300 298 300 306 310 314 316 308
307 307 308 308 308 309 309 310 310 311 312 312 313 316 315 308 294 303 315 318 318 309 304 299 297 294 292 291 295 290 294 295 297 299 297 296 298 295 298 300 308 310 315 315 313
305 305 305 305 306 307 307 308 308 310 310 311 313 315 309 300 299 310 318 320 314 308 299 296 294 294 291 293 294 292 293 295 296 295 295 296 294 294 295 300 305 306 309 312 313
303 303 303 303 304 305 305 307 308 308 310 311 313 314 304 295 307 311 312 312 308 304 299 298 296 296 293 292 291 294 294 294 295 295 296 293 293 294 296 299 300 302 302 306 309
302 302 303 303 303 304 305 305 306 308 310 311 313 311 301 299 306 302 306 306 307 304 298 299 298 295 295 291 294 293 289 292 293 294 294 295 291 292 298 299 298 299 301 302 304
302 302 302 302 302 303 304 305 307 310 312 312 313 309 297 300 298 302 302 300 301 303 300 300 300 295 293 295 292 288 289 285 292 294 295 292 285 293 297 297 297 298 299 300 302
302 302 302 301 302 302 305 305 310 310 310 311 307 303 295 304 297 297 298 296 297 298 299 299 298 293 292 286 284 286 280 283 287 293 292 291 287 294 297 296 296 298 300 301 301
301 301 301 300 301 302 304 308 310 307 308 308 303 295 299 295 298 296 297 297 294 294 294 292 290 287 286 284 278 282 282 285 284 289 291 290 290 294 295 295 294 295 297 298 299
301 301 300 300 301 302 298 299 292 296 290 287 288 291 294 293 301 299 296 293 293 291 284 288 283 280 283 286 287 287 287 286 289 292 288 289 290 292 294 293 293 294 296 298 299
300 300 299 300 300 300 296 289 287 287 282 289 292 292 292 291 288 293 296 291 288 283 286 284 280 285 288 288 286 285 283 283 287 290 289 288 287 290 291 291 293 293 293 295 297
300 299 299 299 299 295 291 289 296 295 283 289 291 287 287 289 286 287 292 289 287 286 286 283 286 290 287 287 287 287 284 284 284 289 290 287 284 287 290 292 293 294 295 295 296
299 299 299 299 293 291 288 293 296 296 281 280 283 286 285 287 286 292 291 288 286 282 284 286 290 288 287 286 288 283 290 288 286 284 280 287 278 286 289 290 293 293 294 294 295
298 298 298 298 291 287 290 294 296 293 271 280 281 289 285 282 284 284 289 286 282 282 283 281 285 285 283 285 288 285 289 288 285 282 281 282 279 284 287 287 289 290 292 293 294
298 297 297 293 292 292 295 296 295 280 266 273 279 277 278 281 281 283 283 288 286 280 283 283 288 286 285 288 285 286 285 283 280 278 274 280 279 282 286 289 291 295 291 292 292
297 297 294 293 286 294 296 292 279 267 275 269 272 276 276 275 276 278 277 276 272 268 270 276 280 286 288 284 286 283 281 275 272 271 272 281 278 282 288 291 292 289 289 289 290
297 295 294 292 294 295 292 281 264 269 269 276 275 276 272 275 274 274 274 273 276 273 270 267 267 278 280 278 278 280 280 276 269 271 275 280 276 282 290 293 294 290 290 289 288
296 293 289 291 295 293 284 267 266 272 275 273 274 271 270 273 273 273 272 273 275 275 267 267 268 276 279 280 282 278 276 283 278 279 275 277 281 287 291 289 287 288 287 286 287
290 290 285 292 294 289 277 270 271 276 276 275 269 272 266 268 269 270 271 275 273 276 277 272 265 275 277 281 283 279 283 276 277 269 266 276 277 280 286 284 285 285 285 285 286
290 284 288 292 292 282 270 269 274 278 278 274 272 269 271 269 270 268 270 273 275 273 276 273 271 270 274 275 272 275 275 277 279 277 271 272 275 282 282 284 283 283 284 284 284
287 278 289 291 277 278 270 273 278 276 279 276 276 273 271 271 269 268 268 271 277 276 271 274 271 265 267 274 277 273 272 273 270 269 273 276 275 285 284 284 284 283 284 283 283
282 282 289 287 271 272 273 274 276 275 275 275 273 275 275 271 267 271 272 276 277 275 271 273 269 261 264 270 274 269 273 273 272 275 270 271 274 285 284 282 283 282 282 282 282
284 275 281 284 280 274 270 271 271 278 276 276 274 275 273 271 273 268 271 275 277 276 280 277 265 262 260 264 268 266 269 272 271 269 270 271 275 280 283 281 281 281 280 279 279
282 275 275 271 273 273 273 274 271 271 275 276 273 272 270 267 269 269 272 272 275 277 275 272 262 263 267 269 269 269 268 270 270 272 269 272 274 278 279 279 278 279 279 277 276
279 277 277 275 275 273 273 271 271 273 272 270 269 273 273 268 270 268 270 271 270 273 271 272 263 266 264 269 270 268 270 272 273 274 275 276 275 277 281 279 277 276 276 275 274
286 286 280 276 274 272 273 273 272 274 275 276 274 273 272 274 275 275 276 275 274 271 270 268 263 262 258 269 268 260 269 272 272 273 272 270 272 278 274 274 273 274 274 273 273
Wind_Speed
19 18 18 19 21 21 20 20 19 19 18 18 18 18 17 15 18 12 11 10 5 10 5 8 6 7 5 6 10 5 6 12 20 23 29 17 18 19 11 9 8 11 9 6 9
23 23 22 22 21 20 20 20 20 20 20 19 19 19 17 13 13 15 12 9 8 10 4 10 9 8 4 6 6 8 9 15 18 19 21 19 13 14 15 13 7 12 4 10 9
23 23 23 24 25 25 24 23 22 20 19 19 19 18 14 10 9 6 4 12 13 12 9 9 9 7 10 9 12 10 16 15 16 18 20 22 20 10 15 16 16 10 11 12 10
22 22 23 23 24 25 25 26 26 24 21 18 16 16 7 7 9 3 6 9 10 10 11 7 7 7 7 13 15 21 18 16 17 17 19 20 18 18 15 19 14 17 14 13 8
22 23 24 24 25 26 26 26 25 23 22 20 15 14 6 6 12 4 8 10 10 11 13 13 12 12 11 7 13 20 18 19 18 18 13 17 20 20 25 16 17 18 21 16 14
23 24 25 25 26 27 27 26 24 23 22 18 13 8 5 11 4 8 7 7 9 12 12 13 7 11 12 16 16 11 12 15 14 15 15 21 22 13 17 10 21 24 24 15 16
24 25 27 27 28 29 27 26 27 25 21 16 10 7 8 18 6 2 4 6 8 10 13 10 12 12 6 12 20 17 20 18 19 12 14 7 25 29 23 19 23 20 19 19 20
26 27 28 30 30 28 29 30 27 21 13 8 6 7 8 6 8 9 1 9 7 7 9 9 6 10 12 9 13 12 14 17 6 19 22 13 33 9 9 13 22 24 23 20 17
27 28 29 30 29 29 31 30 21 8 6 7 5 1 8 6 9 11 7 11 7 7 6 5 4 6 7 12 10 13 16 17 18 19 13 16 28 9 11 9 9 16 18 17 17
27 28 29 29 25 27 33 21 3 2 1 3 4 1 5 18 24 15 8 8 11 6 6 6 6 8 11 13 16 13 23 18 23 10 16 20 32 18 11 18 17 15 14 11 11
28 29 28 27 23 24 24 5 7 4 13 8 13 12 16 26 14 10 6 7 12 8 10 13 8 18 33 24 25 22 20 22 22 11 10 20 25 21 13 15 19 18 18 21 22
28 28 27 25 19 24 17 10 7 3 8 12 6 11 17 25 17 23 23 13 10 15 14 11 21 32 13 17 22 23 25 29 29 16 13 20 25 20 15 14 19 22 24 22 20
30 28 27 27 15 13 14 17 8 8 3 6 12 20 24 23 12 23 21 22 18 25 26 23 26 21 18 18 22 25 27 31 25 16 13 16 25 27 17 17 21 29 30 24 23
28 25 23 26 3 11 8 15 9 4 0 16 14 10 23 24 5 17 23 20 15 24 23 23 31 32 26 26 24 29 26 26 23 19 17 8 22 29 16 16 20 16 23 24 23
27 21 22 17 9 7 14 13 6 3 4 16 9 10 26 18 22 17 24 16 18 25 15 17 26 23 17 32 28 30 22 22 16 14 14 20 12 33 8 8 10 10 11 14 16
25 18 19 10 7 12 14 12 2 2 4 8 13 22 22 21 18 20 20 16 4 12 15 22 18 19 21 19 13 14 22 10 1 4 13 23 22 27 16 16 19 24 6 7 9
23 16 14 8 10 15 12 5 1 10 10 10 13 23 18 22 23 24 24 17 16 15 21 22 10 10 10 24 18 16 8 8 5 8 15 18 14 20 9 13 20 4 6 8 10
21 13 13 8 12 13 6 4 15 1 3 13 16 15 14 23 14 24 23 13 11 13 9 14 17 20 19 17 12 13 13 11 10 11 10 17 11 14 20 35 24 8 10 16 15
17 3 8 12 14 10 3 12 3 4 8 12 15 9 9 16 13 16 19 6 6 17 8 11 17 35 26 24 19 4 14 20 21 21 7 6 8 10 16 11 11 14 16 14 14
4 3 10 16 16 6 6 9 3 6 8 9 9 9 11 14 14 18 12 10 19 18 14 9 22 13 23 24 8 15 14 6 4 5 6 7 8 9 9 10 11 12 12 12 12
2 2 8 16 5 5 7 5 1 6 9 6 10 8 13 14 14 15 8 20 12 25 16 16 7 20 15 9 23 21 10 7 9 8 6 3 3 6 9 9 10 11 11 11 12
3 3 7 9 6 4 5 1 2 5 7 4 6 10 10 16 14 13 18 17 21 17 17 8 8 9 25 27 14 14 12 13 8 11 9 11 17 7 9 9 9 12 12 12 12
3 2 4 6 5 4 3 2 2 3 5 3 4 5 13 16 13 18 14 19 22 19 12 14 4 12 16 8 14 17 20 18 17 11 5 5 5 6 9 11 12 11 12 12 13
1 2 3 4 2 4 3 1 4 4 2 4 8 7 9 15 15 12 21 13 17 17 25 14 4 1 12 18 20 23 25 20 13 10 14 16 21 19 11 11 12 12 13 14 14
4 2 2 3 2 4 3 3 6 4 1 4 5 6 15 10 17 12 15 19 21 16 11 6 5 5 16 23 21 24 28 23 18 16 16 23 22 17 7 9 12 14 14 15 16
2 3 1 3 3 5 3 3 5 4 3 7 6 15 14 11 11 16 15 18 14 15 13 9 7 12 18 22 22 25 23 21 18 19 17 16 12 15 11 14 14 14 14 14 14
1 1 1 5 2 2 3 3 5 11 7 4 11 14 14 14 12 17 15 18 18 16 16 9 2 4 7 16 21 12 7 6 13 10 9 6 10 13 10 14 15 15 13 14 15
Wind_Direction
14 8 3 356 354 350 346 343 341 338 336 335 334 331 326 318 311 282 247 232 196 188 160 271 237 224 231 238 231 248 249 237 232 239 264 265 266 272 252 259 281 283 227 120 72
11 6 1 357 352 347 343 338 335 332 329 329 328 329 324 321 296 268 241 198 123 131 198 221 228 218 228 222 212 205 232 237 245 259 267 272 278 295 303 291 256 272 287 114 135
7 1 356 351 347 343 340 335 331 325 321 320 321 324 322 316 285 246 9 202 159 162 228 249 251 242 234 253 225 213 242 260 272 277 289 285 282 294 288 278 270 264 236 221 183
5 359 353 348 342 337 334 331 328 324 321 315 314 316 309 280 286 95 124 134 164 188 207 202 225 221 225 225 225 251 253 260 265 272 284 284 299 286 273 271 270 284 274 275 228
2 357 352 346 340 334 330 325 320 315 315 316 307 316 293 235 254 182 157 148 164 198 205 201 207 209 238 236 236 246 253 257 264 271 281 289 273 272 263 263 273 269 264 262 264
2 358 351 346 340 333 328 322 317 312 307 305 296 296 250 252 315 133 179 164 194 204 217 224 227 235 270 263 255 282 294 285 272 268 275 270 275 265 254 252 247 256 262 255 241
360 354 349 343 338 333 327 324 317 309 300 293 276 232 252 246 339 14 227 229 236 221 245 235 253 254 299 260 248 266 275 276 264 257 246 257 269 246 258 241 244 246 249 247 245
358 353 348 344 341 334 327 321 318 314 301 262 224 200 257 24 339 331 233 264 259 266 268 285 325 271 262 282 292 276 261 265 224 232 242 185 257 270 295 230 236 237 248 248 250
357 352 350 349 345 341 329 321 314 344 59 119 143 242 301 313 16 345 277 261 220 253 244 268 228 232 223 226 267 226 264 254 264 228 240 187 255 230 233 277 308 233 239 240 243
358 352 351 353 352 345 335 320 300 251 114 156 49 285 349 8 337 324 321 279 277 250 242 221 221 229 221 208 229 222 233 242 249 209 230 222 249 248 274 283 276 277 275 273 258
358 353 349 353 347 356 354 357 5 112 29 359 316 323 347 341 347 336 7 303 277 252 231 196 204 216 225 208 229 246 264 267 262 246 233 241 249 249 234 249 264 262 251 247 248
358 353 347 349 343 356 32 57 53 207 338 314 287 43 9 344 343 7 348 317 277 256 246 247 230 236 255 227 237 247 254 258 267 264 259 271 264 256 245 249 259 264 263 257 248
358 355 349 344 333 359 50 27 358 343 282 328 68 27 16 337 330 346 16 333 322 277 266 258 259 256 242 258 257 250 244 251 254 268 266 264 269 265 256 258 255 252 253 253 251
357 355 351 342 343 340 33 348 333 329 298 358 6 31 353 335 22 345 355 328 313 299 306 256 268 275 275 265 255 257 254 259 263 265 255 213 262 265 263 248 248 253 243 244 243
356 359 351 360 316 1 327 324 314 201 91 336 360 327 331 1 340 2 342 321 311 310 284 283 266 264 299 253 260 262 282 251 259 261 260 250 272 273 195 253 278 287 261 234 225
355 359 349 346 334 349 325 308 212 269 40 351 346 339 344 17 358 341 343 15 313 324 308 279 264 271 265 281 305 318 261 247 291 263 241 238 220 265 250 251 252 259 278 69 57
352 342 1 4 335 323 318 298 122 61 337 329 328 333 356 3 351 358 345 30 32 348 340 328 281 290 236 265 260 279 267 232 232 220 242 243 244 236 263 234 247 236 78 44 38
341 3 5 4 328 327 315 67 62 294 20 319 328 338 4 351 1 354 340 13 37 15 312 341 322 3 328 297 294 235 224 222 225 233 252 234 226 223 249 240 257 57 65 58 46
329 351 11 347 335 322 53 56 78 352 337 326 324 345 347 358 344 347 333 28 18 26 10 319 298 314 303 336 314 303 251 268 262 289 294 254 299 232 253 257 70 66 62 55 47
304 275 3 344 327 338 58 96 91 355 340 336 354 4 339 345 355 353 329 331 331 0 335 294 300 301 322 311 292 339 286 265 240 246 248 235 256 265 336 46 62 57 57 53 47
346 52 352 338 335 40 65 75 330 348 11 334 335 310 340 338 337 339 314 322 340 331 342 315 281 301 338 347 331 320 6 326 297 225 258 271 223 8 45 43 72 61 58 54 50
346 47 346 327 42 40 54 92 288 326 354 326 314 337 331 326 315 318 313 304 328 315 335 311 292 325 308 305 81 22 6 359 348 333 311 284 274 66 64 60 66 68 58 53 52
42 1 1 349 56 31 44 271 324 270 329 309 297 321 325 320 325 316 303 309 309 329 319 315 308 337 327 329 326 349 327 329 314 277 261 297 290 53 68 53 48 54 52 50 42
2 13 24 31 92 21 16 323 315 303 281 343 288 322 316 318 309 294 305 311 325 319 311 353 346 275 284 288 300 304 304 311 300 302 327 298 314 322 12 54 47 51 49 43 37
5 71 118 351 13 342 308 265 297 323 69 340 286 316 315 302 306 297 324 319 316 310 323 302 270 274 281 288 290 289 293 296 285 271 268 288 292 340 45 43 36 34 35 33 30
50 12 285 276 262 266 270 233 269 296 326 290 284 307 307 290 286 312 318 309 298 312 316 290 277 297 285 283 290 294 288 285 276 274 267 268 290 358 345 29 34 37 30 28 26
90 142 235 269 230 254 231 244 266 311 294 308 298 304 297 298 317 297 288 283 273 280 290 293 290 296 285 307 313 298 331 7 348 38 341 346 351 339 39 43 33 21 28 23 24